{"data":{"norad_id":61669,"epoch":"2026-05-25T03:29:25.380960Z","epoch_age_seconds":62158,"freshness":"FRESH","line1":"1 61669U 24193J   26145.14543265  .00000021  00000+0  12839-4 0  9994","line2":"2 61669  53.1600  93.6581 0001207  89.7987 270.3152 15.30196760 88267","mean_motion":15.3019676,"eccentricity":0.0001207,"inclination_deg":53.16,"raan_deg":93.6581,"arg_perigee_deg":89.7987,"mean_anomaly_deg":270.3152,"bstar":1.2839e-5,"rev_number":8826,"period_min":94.105544962728,"perigee_km":474.39754272994,"apogee_km":476.05194425482,"semimajor_km":6853.3617434924,"source":"CELESTRAK","updated_at":"2026-05-25T13:38:19.434138Z"}}